"America/Chicago Time","Lifetime Energy (kWh)","Power (W)","AC Volts RMS (V) ","AC Amps RMS (mA)","Grid Frequency (Hz)","Inverter Temperature (C)"
"03/12/12 08:49:06","29.4579","0.0","213.19","197","60.03","6"
"03/12/12 08:54:07","29.4583","0.0","212.68","0","60.03","7"
"03/12/12 08:59:06","29.4588","0.0","213.17","0","60.03","7"
"03/12/12 09:04:06","29.4595","7.6","213.63","217","60.03","7"
"03/12/12 09:09:07","29.4602","14.0","214.0","8","60.03","7"
"03/12/12 09:14:06","29.461","11.4","214.15","122","60.07","8"
"03/12/12 09:19:06","29.4617","15.1","212.92","12","60.0","8"
"03/12/12 09:24:05","29.4621","8.2","213.13","221","60.07","8"
"03/12/12 09:29:06","29.4626","13.8","213.36","65","60.03","8"
"03/12/12 09:34:07","29.4633","13.3","213.62","4","60.0","8"
"03/12/12 09:39:07","29.4644","12.6","212.67","46","60.03","9"
"03/12/12 09:44:07","29.4654","13.2","212.8","121","60.03","9"
"03/12/12 09:49:07","29.4665","5.1","213.04","84","60.03","9"
"03/12/12 09:54:07","29.4678","13.2","213.25","31","60.03","9"
"03/12/12 09:59:05","29.4694","30.6","213.78","52","60.03","9"
"03/12/12 10:04:06","29.4717","9.6","213.21","252","60.0","9"
"03/12/12 10:09:05","29.4729","13.8","213.12","75","60.0","9"
"03/12/12 10:14:06","29.4742","14.1","214.46","285","60.03","9"
"03/12/12 10:19:06","29.4756","11.8","212.19","55","60.03","9"
"03/12/12 10:24:07","29.4772","21.7","213.43","262","60.03","9"
"03/12/12 10:29:06","29.4796","33.0","214.77","234","60.03","10"
"03/12/12 10:34:06","29.4822","29.7","214.65","76","60.0","10"
"03/12/12 10:39:06","29.4848","14.2","213.68","115","60.03","10"
"03/12/12 10:44:07","29.4868","13.4","213.87","110","60.03","11"
"03/12/12 10:49:07","29.4887","18.9","214.21","31","60.03","11"
"03/12/12 10:54:07","29.4908","13.4","213.08","216","60.03","11"
"03/12/12 10:59:07","29.4924","20.6","214.23","72","60.03","11"
"03/12/12 11:04:06","29.4935","13.1","213.51","7","60.03","11"
"03/12/12 11:09:06","29.4949","17.1","213.69","35","60.0","11"
"03/12/12 11:14:06","29.4962","17.0","214.59","7","60.03","11"
"03/12/12 11:19:06","29.4974","6.5","214.06","217","60.03","11"
"03/12/12 11:24:06","29.4983","12.9","213.63","94","60.03","11"
"03/12/12 11:29:07","29.5003","24.3","214.34","288","60.0","10"
"03/12/12 11:34:07","29.502","20.3","213.87","83","60.03","10"
"03/12/12 11:39:07","29.5035","16.7","212.23","150","60.03","11"
"03/12/12 11:44:05","29.5057","29.9","214.45","81","60.0","11"
"03/12/12 11:49:06","29.5083","22.6","213.21","15","60.03","11"
"03/12/12 11:54:06","29.5098","28.2","213.76","76","60.03","11"
"03/12/12 11:59:07","29.5113","17.5","214.69","273","60.03","11"
"03/12/12 12:04:06","29.5132","29.6","214.03","60","60.0","11"
"03/12/12 12:09:06","29.5159","46.0","213.98","330","60.0","11"
"03/12/12 12:14:06","29.5191","34.0","214.68","181","60.0","11"
"03/12/12 12:19:07","29.5228","53.6","214.58","358","60.03","12"
"03/12/12 12:24:06","29.5259","40.4","214.7","100","60.03","12"
"03/12/12 12:29:06","29.5289","42.9","214.39","367","60.03","13"
"03/12/12 12:34:06","29.5314","39.8","214.01","121","60.03","13"
"03/12/12 12:39:06","29.5337","33.2","213.77","263","60.03","13"
"03/12/12 12:44:07","29.5358","15.4","213.7","48","60.0","13"
"03/12/12 12:49:05","29.5376","34.9","213.12","67","60.03","13"
"03/12/12 12:54:07","29.5401","46.6","213.64","316","60.03","13"
"03/12/12 12:59:07","29.5427","19.1","213.78","18","60.03","13"
"03/12/12 13:04:07","29.5447","25.4","214.08","22","60.03","13"
"03/12/12 13:09:07","29.5463","13.9","213.4","206","60.03","13"
"03/12/12 13:14:06","29.5477","14.4","213.7","287","60.0","13"
"03/12/12 13:19:07","29.55","28.9","213.21","77","60.03","13"
"03/12/12 13:24:07","29.553","48.2","214.61","136","60.03","13"
"03/12/12 13:29:06","29.5563","47.1","214.18","121","60.0","14"
"03/12/12 13:34:07","29.5598","37.9","213.1","108","60.07","15"
"03/12/12 13:39:07","29.5635","35.0","214.31","119","60.0","15"
"03/12/12 13:44:06","29.5664","36.1","214.79","125","60.0","16"
"03/12/12 13:49:07","29.5689","41.0","215.42","162","60.03","16"
"03/12/12 13:54:07","29.5714","35.7","214.73","139","60.03","17"
"03/12/12 13:59:07","29.5745","40.1","215.11","172","60.0","17"
"03/12/12 14:04:06","29.5774","25.3","214.73","89","60.03","17"
"03/12/12 14:09:06","29.5798","35.6","214.76","149","60.03","17"
"03/12/12 14:14:06","29.5847","103.0","215.74","497","60.03","18"
"03/12/12 14:19:07","29.5948","126.8","216.7","595","60.03","19"
"03/12/12 14:24:07","29.6016","76.3","215.14","378","60.0","20"
"03/12/12 14:29:07","29.6066","46.4","214.75","329","60.03","20"
"03/12/12 14:34:06","29.6102","35.4","214.2","223","60.0","20"
"03/12/12 14:39:07","29.6131","43.0","214.03","289","60.03","20"
"03/12/12 14:44:06","29.6164","42.1","213.94","179","60.0","20"
"03/12/12 14:49:07","29.6204","68.0","213.44","385","60.03","19"
"03/12/12 14:54:07","29.6246","66.0","215.1","336","60.03","20"
"03/12/12 14:59:07","29.6302","75.1","216.01","375","60.03","20"
"03/12/12 15:04:06","29.6378","91.6","215.88","446","60.03","21"
"03/12/12 15:09:07","29.6442","101.7","216.15","487","60.03","22"
"03/12/12 15:14:06","29.6521","98.6","215.85","477","60.03","23"
"03/12/12 15:19:06","29.6599","101.0","215.69","486","60.0","24"
"03/12/12 15:24:06","29.6689","130.4","216.59","612","60.03","25"
"03/12/12 15:29:06","29.6791","139.2","217.21","652","60.03","27"
"03/12/12 15:34:06","29.6898","146.1","216.99","678","60.03","28"
"03/12/12 15:39:07","29.7","120.1","216.97","564","60.03","28"
"03/12/12 15:44:07","29.7089","108.5","216.3","516","60.03","29"
"03/12/12 15:49:06","29.7176","115.4","215.98","549","60.03","29"
"03/12/12 15:54:06","29.7255","92.9","215.58","455","60.03","28"
"03/12/12 15:59:07","29.7312","14.1","213.94","204","60.03","28"
"03/12/12 16:04:07","29.7358","68.7","216.58","344","60.07","27"
"03/12/12 16:09:06","29.7391","31.6","214.29","111","60.0","26"
"03/12/12 16:14:06","29.7407","11.7","213.93","133","60.0","24"
"03/12/12 16:19:06","29.7417","15.1","212.9","5","60.03","23"
"03/12/12 16:24:06","29.7428","16.1","214.34","63","60.03","22"
"03/12/12 16:29:06","29.744","16.3","214.04","1","60.0","22"
"03/12/12 16:34:07","29.7454","24.8","214.52","153","60.0","21"
"03/12/12 16:39:07","29.748","45.7","214.87","284","60.03","20"
"03/12/12 16:44:07","29.7513","24.8","215.25","112","60.0","20"
"03/12/12 16:49:06","29.7532","28.1","214.85","59","60.03","20"
"03/12/12 16:54:07","29.7544","14.3","214.9","33","60.03","20"
"03/12/12 16:59:06","29.7558","13.6","214.89","29","60.03","20"
"03/12/12 17:04:06","29.7578","50.3","214.79","119","60.07","20"
"03/12/12 17:09:07","29.7604","12.4","213.49","45","60.03","20"
"03/12/12 17:14:07","29.761","11.3","212.92","8","60.03","20"
"03/12/12 17:19:07","29.7613","14.2","212.87","3","60.0","19"
"03/12/12 17:24:08","29.7615","0.0","213.01","0","60.03","19"
"03/12/12 17:29:06","29.7617","0.0","212.4","0","60.03","18"
"03/12/12 17:39:07","29.7621","0.0","213.36","0","60.03","18"
"03/12/12 17:44:07","29.7625","14.8","213.03","55","60.03","17"
"03/13/12 08:14:06","29.7627","14.8","213.29","15","60.03","6"
"03/13/12 08:19:07","29.7642","11.2","213.86","98","60.03","6"
"03/13/12 08:24:07","29.766","25.5","213.83","53","60.03","6"
"03/13/12 08:29:07","29.7714","50.2","214.42","463","60.0","7"
"03/13/12 08:34:07","29.7776","82.4","215.81","408","60.03","8"
"03/13/12 08:39:06","29.7847","95.9","215.7","466","60.03","9"
"03/13/12 08:44:07","29.7917","69.1","215.56","359","60.03","9"
"03/13/12 08:49:06","29.7985","108.7","215.65","520","60.03","9"
"03/13/12 08:54:07","29.8049","41.5","214.91","349","60.03","10"
"03/13/12 08:59:06","29.8098","83.7","215.64","413","60.03","10"
"03/13/12 09:04:08","29.815","44.2","214.69","352","60.0","10"
"03/13/12 09:09:07","29.8218","64.6","215.73","329","60.03","11"
"03/13/12 09:14:07","29.832","135.0","217.02","630","60.03","11"
"03/13/12 09:19:07","29.842","127.8","215.58","601","60.03","11"
"03/13/12 09:24:07","29.8522","134.6","216.55","628","60.0","12"
"03/13/12 09:29:08","29.8626","135.7","217.09","634","60.0","12"
"03/13/12 09:34:06","29.8733","139.4","217.09","644","60.03","13"
"03/13/12 09:39:08","29.8843","144.0","218.19","667","60.03","13"
"03/13/12 09:44:06","29.8956","147.4","217.31","679","60.03","13"
"03/13/12 09:49:08","29.9073","151.1","217.68","696","60.03","13"
"03/13/12 09:54:06","29.9191","154.9","217.8","714","60.03","13"
"03/13/12 09:59:07","29.9314","159.4","218.31","729","60.0","13"
"03/13/12 10:04:06","29.9439","162.3","217.05","742","60.0","14"
"03/13/12 10:09:08","29.9567","165.7","216.47","763","60.03","14"
"03/13/12 10:14:07","29.9697","168.1","217.96","771","60.0","15"
"03/13/12 10:19:07","29.9829","172.2","218.19","787","60.0","15"
"03/13/12 10:24:07","29.9965","174.9","218.18","793","60.0","15"
"03/13/12 10:29:08","30.0102","177.8","218.53","809","60.03","15"
"03/13/12 10:34:07","30.0241","180.0","218.21","816","60.03","15"
"03/13/12 10:39:08","30.0383","183.1","217.63","834","60.03","15"
"03/13/12 10:44:07","30.0526","184.2","218.71","837","60.0","16"
"03/13/12 10:49:07","30.067","186.9","217.84","847","60.03","16"
"03/13/12 10:54:07","30.0818","188.6","218.8","853","60.03","17"
"03/13/12 10:59:08","30.0966","190.6","219.18","858","60.0","17"
"03/13/12 11:04:08","30.1115","192.0","218.96","862","60.0","17"
"03/13/12 11:09:07","30.1264","192.9","218.6","874","60.03","17"
"03/13/12 11:14:07","30.1416","195.2","218.55","884","60.0","18"
"03/13/12 11:19:06","30.1569","196.2","219.13","889","60.03","18"
"03/13/12 11:29:08","30.1875","196.1","217.92","890","60.0","18"
"03/13/12 11:34:06","30.2028","195.7","218.4","881","60.03","18"
"03/13/12 11:39:06","30.2181","194.9","218.33","884","60.03","18"
"03/13/12 11:44:07","30.2334","195.6","218.64","883","60.03","19"
"03/13/12 11:49:08","30.2486","196.0","218.7","883","60.03","19"
"03/13/12 11:54:07","30.2639","195.5","218.61","889","60.03","19"
"03/13/12 11:59:07","30.2791","195.6","217.78","893","60.03","18"
"03/13/12 12:04:08","30.2944","195.2","217.43","887","60.0","19"
"03/13/12 12:09:07","30.3096","195.8","218.36","885","60.0","18"
"03/13/12 12:14:08","30.3249","195.1","216.98","892","60.03","19"
"03/13/12 12:19:07","30.34","195.6","217.52","891","60.03","19"
"03/13/12 12:24:06","30.3553","196.2","218.78","883","60.03","19"
"03/13/12 12:29:07","30.3706","195.9","218.28","890","60.0","19"
"03/13/12 12:34:07","30.3858","195.3","217.76","886","60.0","19"
"03/13/12 12:39:07","30.4011","195.1","217.12","888","60.03","19"
"03/13/12 12:44:07","30.4163","196.5","219.25","889","60.03","19"
"03/13/12 12:49:07","30.4315","196.0","218.35","883","60.03","20"
"03/13/12 12:54:08","30.4468","196.0","218.75","886","60.03","20"
"03/13/12 12:59:07","30.462","195.8","218.97","886","60.03","20"
"03/13/12 13:04:06","30.4772","195.3","217.53","885","60.03","20"
"03/13/12 13:09:07","30.4926","196.1","218.42","887","60.03","20"
"03/13/12 13:14:07","30.5078","195.9","218.05","892","60.03","20"
"03/13/12 13:24:06","30.5383","195.5","217.8","890","60.03","20"
"03/13/12 13:29:06","30.5535","195.8","217.86","887","60.0","20"
"03/13/12 13:34:08","30.5688","196.4","218.13","887","60.03","20"
"03/13/12 13:39:07","30.584","195.7","218.77","882","60.03","20"
"03/13/12 13:44:07","30.584","194.2","217.87","878","60.0","20"
"03/13/12 13:49:08","30.5991","192.8","217.92","873","60.03","20"
"03/13/12 13:54:07","30.614","190.9","218.85","866","60.03","20"
"03/13/12 13:59:07","30.629","190.3","218.82","861","60.0","20"
"03/13/12 14:04:07","30.6437","188.9","218.37","855","60.0","20"
"03/13/12 14:09:07","30.6583","185.6","218.04","843","60.03","20"
"03/13/12 14:14:07","30.6728","184.1","218.09","836","60.0","20"
"03/13/12 14:19:08","30.6871","181.5","218.54","825","60.03","20"
"03/13/12 14:24:08","30.7012","179.7","218.23","819","60.03","20"
"03/13/12 14:29:08","30.715","176.8","218.22","800","60.0","20"
"03/13/12 14:34:08","30.7288","175.1","218.58","796","60.0","20"
"03/13/12 14:39:07","30.7423","172.2","217.69","790","60.0","20"
"03/13/12 14:44:07","30.7556","170.9","218.67","776","60.0","20"
"03/13/12 14:49:08","30.7688","166.9","218.06","764","60.03","20"
"03/13/12 14:54:07","30.7816","163.8","217.86","753","60.03","20"
"03/13/12 14:59:08","30.7943","162.1","219.18","737","60.03","20"
"03/13/12 15:04:07","30.8068","158.3","217.59","728","60.03","20"
"03/13/12 15:09:07","30.819","155.6","218.04","718","60.03","20"
"03/13/12 15:14:06","30.8309","152.5","216.92","701","60.03","20"
"03/13/12 15:19:07","30.8427","149.8","217.41","690","60.0","19"
"03/13/12 15:24:07","30.8542","146.6","217.93","672","60.0","19"
"03/13/12 15:29:07","30.8655","143.6","217.52","661","60.03","19"
"03/13/12 15:34:07","30.8765","139.3","217.48","650","60.03","19"
"03/13/12 15:39:08","30.8872","135.0","216.94","632","60.03","19"
"03/13/12 15:44:08","30.8976","131.5","216.12","617","60.03","19"
"03/13/12 16:07:47","30.9423","111.3","216.11","531","60.03","18"
"03/13/12 16:12:46","30.9508","106.8","216.07","509","60.0","18"
"03/13/12 16:17:46","30.9589","102.0","215.98","494","60.03","18"
"03/13/12 16:22:47","30.9668","97.9","215.75","468","60.03","18"
"03/13/12 16:27:47","30.9741","92.1","215.08","453","60.07","18"
"03/13/12 16:32:47","30.9811","86.5","214.54","427","60.03","18"
"03/13/12 16:37:47","30.9876","81.1","215.93","398","60.03","18"
"03/13/12 16:42:47","30.9937","76.3","214.18","380","60.0","18"
"03/13/12 16:47:46","30.9994","69.8","214.12","350","60.03","18"
"03/13/12 16:57:48","31.0075","48.1","214.64","290","60.03","18"
"03/13/12 17:02:47","31.0107","46.7","214.11","165","60.07","18"
"03/13/12 17:07:46","31.0144","56.8","213.87","327","60.03","18"
"03/13/12 17:12:47","31.0183","48.7","213.58","357","60.03","18"
"03/13/12 17:17:46","31.0219","38.0","213.82","103","60.03","17"
"03/13/12 17:22:46","31.0252","44.4","213.77","353","60.0","17"
"03/13/12 17:27:48","31.0281","36.1","213.92","172","60.03","17"
"03/13/12 17:32:47","31.0307","35.4","213.86","197","60.0","17"
"03/13/12 17:37:47","31.033","32.1","214.18","296","60.0","17"
"03/13/12 17:42:47","31.0349","15.4","213.29","258","60.0","16"
"03/13/12 17:47:47","31.0365","13.4","212.76","40","60.0","16"
"03/13/12 17:52:46","31.0379","11.7","213.75","12","60.03","15"
"03/13/12 17:57:48","31.039","15.5","213.77","1","60.07","15"
"03/13/12 18:02:47","31.0398","12.1","213.6","0","60.07","15"
"03/13/12 18:07:46","31.0405","14.4","213.27","0","60.03","15"
"03/13/12 18:12:48","31.041","12.5","213.63","4","60.03","15"
"03/13/12 18:17:48","31.0412","0.0","212.86","0","60.03","14"
"03/13/12 18:22:47","31.0412","0.0","213.28","0","60.03","13"
"03/14/12 12:26:09","31.5774","185.0","217.76","841","60.03","28"
"03/14/12 12:31:08","31.5913","163.9","216.7","755","60.03","29"
"03/14/12 12:36:08","31.6058","177.2","217.11","812","60.03","30"
"03/14/12 12:41:09","31.6192","174.6","218.08","795","60.0","30"
"03/14/12 12:46:08","31.6335","193.4","218.22","879","60.03","30"
"03/14/12 12:51:08","31.6483","142.5","217.96","654","60.03","30"
"03/14/12 12:56:09","31.6549","70.9","215.55","357","60.03","29"
"03/14/12 13:01:09","31.6667","137.5","216.75","638","60.03","29"
"03/14/12 13:06:07","31.6807","184.0","218.02","835","60.0","31"
"03/14/12 13:11:08","31.6945","175.1","217.95","797","60.03","31"
"03/14/12 13:16:09","31.7074","154.9","217.56","713","60.0","31"
"03/14/12 13:21:09","31.7197","161.2","217.88","743","60.0","32"
"03/14/12 13:26:09","31.7329","173.7","217.57","791","60.03","32"
"03/14/12 13:31:09","31.745","166.7","217.13","766","60.03","32"
"03/14/12 13:36:07","31.7543","148.8","216.84","687","60.03","32"
"03/14/12 13:41:08","31.7649","134.9","217.06","625","60.0","32"
"03/14/12 13:46:09","31.7777","172.2","217.66","788","60.03","34"
"03/14/12 13:51:09","31.7908","153.9","217.53","708","60.03","35"
"03/14/12 13:56:08","31.803","165.0","218.26","754","60.03","36"
"03/14/12 14:01:08","31.8158","160.6","218.14","739","60.03","36"
"03/14/12 14:06:08","31.8283","158.0","217.96","726","60.0","37"
"03/14/12 14:11:09","31.8404","154.6","217.94","712","60.03","38"
"03/14/12 14:16:09","31.8525","152.6","217.02","706","60.0","39"
"03/14/12 14:21:08","31.8643","151.1","217.48","697","60.0","39"
"03/14/12 14:26:09","31.8761","150.7","218.34","694","60.07","39"
"03/14/12 14:31:08","31.8877","148.5","218.27","683","60.03","39"
"03/14/12 14:36:08","31.8994","149.6","218.23","690","60.03","38"
"03/14/12 14:41:09","31.9109","147.0","218.56","680","60.03","38"
"03/14/12 14:46:08","31.9222","144.1","217.4","667","60.0","38"
"03/14/12 14:51:08","31.9334","143.0","217.92","662","60.07","38"
"03/14/12 14:56:09","31.9445","141.1","218.16","653","60.03","37"
"03/14/12 15:01:07","31.9554","138.5","217.65","641","60.03","37"
"03/14/12 15:06:09","31.9661","133.6","218.11","618","60.0","37"
"03/14/12 15:11:09","31.9763","131.1","218.22","609","60.03","37"
"03/14/12 15:16:08","31.9863","128.2","217.36","599","60.0","37"
"03/14/12 15:21:08","31.9961","125.6","216.94","589","60.03","37"
"03/14/12 15:26:09","32.0059","122.2","215.86","578","60.0","36"
"03/14/12 15:31:09","32.0154","120.8","216.89","569","60.03","36"
"03/14/12 15:36:09","32.0237","107.1","215.78","513","60.03","36"
"03/14/12 15:41:07","32.0317","101.1","215.84","485","60.03","36"
"03/14/12 15:46:07","32.0394","96.1","215.94","465","60.03","36"
"03/14/12 15:51:09","32.0467","88.6","215.3","432","60.0","37"
"03/14/12 15:56:09","32.0538","94.3","215.12","458","60.0","37"
"03/14/12 16:01:09","32.061","90.5","215.33","445","60.07","37"
"03/14/12 16:06:07","32.068","92.0","216.22","448","60.03","37"
"03/14/12 16:11:08","32.0748","86.4","215.58","425","60.03","37"
"03/14/12 16:16:09","32.0814","81.3","215.99","402","60.03","38"
"03/14/12 16:21:08","32.0873","75.0","215.42","374","60.0","38"
"03/14/12 16:26:09","32.0932","71.7","215.12","355","60.03","38"
"03/14/12 16:31:09","32.0987","66.2","214.35","338","60.03","38"
"03/14/12 16:36:09","32.104","68.6","214.56","348","60.0","37"
"03/14/12 16:41:09","32.1091","66.0","214.69","333","60.03","37"
"03/14/12 16:46:09","32.1136","43.5","214.43","311","60.0","35"
"03/14/12 16:51:09","32.1174","55.2","214.82","153","60.03","33"
"03/14/12 16:56:07","32.1213","49.5","214.75","349","60.03","32"
"03/14/12 17:01:08","32.125","50.9","214.59","198","60.07","31"
"03/14/12 17:06:08","32.1281","42.3","214.77","319","60.07","30"
"03/14/12 17:11:09","32.1309","40.2","213.3","92","60.03","29"
"03/14/12 17:16:07","32.1335","35.8","214.01","270","60.03","28"
"03/14/12 17:21:09","32.1359","27.2","213.39","98","60.0","27"
"03/14/12 17:26:09","32.1383","22.3","213.35","182","60.03","26"
"03/14/12 17:31:07","32.1402","13.1","213.75","20","60.03","26"
"03/14/12 17:36:08","32.1418","13.7","213.09","10","60.03","26"
"03/14/12 17:41:08","32.1429","12.2","213.86","28","60.03","25"
"03/14/12 17:46:08","32.1437","2.2","213.36","93","60.03","25"
"03/14/12 17:51:09","32.1444","0.0","213.21","0","60.03","24"
"03/14/12 17:56:09","32.1449","0.0","213.05","0","60.03","23"
"03/14/12 18:01:09","32.1452","0.0","212.33","112","60.07","22"
"03/14/12 18:06:09","32.1457","0.0","214.05","0","60.03","22"
"03/14/12 18:11:08","32.1461","0.0","213.03","0","60.03","21"
"03/14/12 18:16:09","32.1465","9.6","213.42","0","60.0","20"
"03/14/12 18:21:08","32.1468","0.0","212.95","0","60.03","20"
"03/15/12 07:31:08","32.1474","13.8","214.4","10","60.0","7"
"03/15/12 07:36:08","32.1484","13.7","214.47","11","60.03","7"
"03/15/12 07:41:09","32.1498","28.9","214.54","126","60.03","8"
"03/15/12 07:46:09","32.1513","32.2","215.33","302","60.03","9"
"03/15/12 07:51:08","32.1531","12.7","214.02","19","60.07","9"
"03/15/12 07:56:09","32.1551","36.4","213.27","318","60.0","9"
"03/15/12 08:01:08","32.1573","36.7","214.47","269","60.03","9"
"03/15/12 08:06:08","32.1602","38.5","215.33","103","60.0","10"
"03/15/12 08:11:09","32.1636","56.6","215.24","223","60.03","11"
"03/15/12 08:16:10","32.1676","43.5","215.8","406","60.03","11"
"03/15/12 08:21:10","32.1717","70.0","215.76","378","60.0","11"
"03/15/12 08:26:08","32.1765","66.6","215.38","336","60.03","12"
"03/15/12 08:31:08","32.1816","56.7","214.63","387","60.03","12"
"03/15/12 08:36:09","32.1853","36.8","215.33","144","60.0","13"
"03/15/12 08:41:08","32.1887","46.4","215.3","264","60.03","13"
"03/15/12 08:46:08","32.1929","66.2","215.9","332","60.03","13"
"03/15/12 08:51:08","32.1985","72.9","215.81","367","60.03","13"
"03/15/12 08:56:08","32.2041","72.1","216.66","360","60.03","14"
"03/15/12 09:01:09","32.2097","72.4","216.31","362","59.96","14"
"03/15/12 09:06:09","32.2157","81.2","215.87","399","60.03","15"
"03/15/12 09:11:08","32.2217","70.4","215.95","354","60.03","15"
"03/15/12 09:16:09","32.2265","60.7","215.77","314","60.0","15"
"03/15/12 09:21:09","32.231","56.7","216.33","420","60.03","15"
"03/15/12 09:26:10","32.2355","70.7","216.62","353","60.03","15"
"03/15/12 09:36:08","32.247","75.5","216.85","376","60.0","15"
"03/15/12 09:41:09","32.2531","77.4","217.53","380","60.03","15"
"03/15/12 09:46:09","32.2597","87.8","217.52","422","60.0","16"
"03/15/12 09:51:08","32.2665","96.7","217.49","463","60.0","17"
"03/15/12 09:56:09","32.2742","103.1","217.43","488","60.03","17"
"03/15/12 10:01:08","32.2824","107.9","218.08","507","60.0","18"
"03/15/12 10:06:08","32.2901","87.3","217.53","424","60.03","18"
"03/15/12 10:11:09","32.2964","77.3","216.81","384","60.03","18"
"03/15/12 10:16:09","32.3019","66.2","216.6","331","60.03","18"
"03/15/12 10:21:09","32.3079","81.9","216.97","399","60.03","18"
"03/15/12 10:26:09","32.3146","82.9","217.03","406","60.0","18"
"03/15/12 10:31:08","32.3209","76.6","215.6","381","60.0","18"
"03/15/12 10:36:09","32.3264","67.5","214.63","344","60.03","18"
"03/15/12 10:41:10","32.3323","84.8","215.53","419","60.03","18"
"03/15/12 10:46:08","32.3386","89.6","216.21","438","60.03","18"
"03/15/12 10:51:08","32.3461","110.8","216.77","523","60.03","19"
"03/15/12 10:56:08","32.3555","122.7","215.96","580","60.03","19"
"03/15/12 11:01:09","32.3652","127.2","216.15","597","60.0","20"
"03/15/12 11:06:09","32.376","137.6","216.88","644","60.03","21"
"03/15/12 11:11:08","32.3869","137.8","217.05","644","60.03","22"
"03/15/12 11:16:09","32.3982","155.9","217.38","714","60.0","23"
"03/15/12 11:21:09","32.4105","154.7","218.17","706","60.0","24"
"03/15/12 11:26:08","32.4223","159.2","217.86","728","60.03","25"
"03/15/12 11:31:09","32.4347","155.6","218.07","713","60.03","25"
"03/15/12 11:36:09","32.4463","141.3","217.09","656","60.03","25"
"03/15/12 11:41:10","32.457","139.8","216.88","648","60.03","25"
"03/15/12 11:46:08","32.4676","139.6","216.63","649","60.0","25"
"03/15/12 11:51:09","32.4786","136.6","216.43","631","60.0","25"
"03/15/12 11:56:08","32.4891","163.8","217.48","757","60.07","25"
"03/15/12 12:01:08","32.502","170.8","217.8","778","60.03","27"
"03/15/12 12:06:10","32.515","162.0","217.84","744","60.03","28"
"03/15/12 12:11:09","32.5278","159.6","216.87","732","60.0","28"
"03/15/12 12:16:10","32.5404","163.7","216.82","753","60.03","29"
"03/15/12 12:21:08","32.5524","136.6","216.6","636","60.0","30"
"03/15/12 12:26:08","32.564","151.3","216.68","701","60.03","31"
"03/15/12 12:31:09","32.5764","157.7","217.95","722","60.0","31"
"03/15/12 12:36:09","32.589","163.9","217.81","750","60.0","32"
"03/15/12 12:41:10","32.6022","171.0","217.54","779","60.03","32"
"03/15/12 12:46:08","32.6152","166.6","216.79","763","59.96","33"
"03/15/12 12:51:09","32.6282","159.3","216.99","738","60.07","33"
"03/15/12 12:56:09","32.641","163.4","217.89","753","60.03","34"
"03/15/12 13:01:10","32.6538","153.4","217.75","708","60.03","34"
"03/15/12 13:06:08","32.666","156.6","216.92","727","60.03","35"
"03/15/12 13:11:09","32.679","150.5","217.89","695","60.03","36"
"03/15/12 13:16:10","32.6909","149.9","218.05","689","60.0","36"
"03/15/12 13:21:09","32.7002","95.7","215.9","463","60.0","34"
"03/15/12 13:26:09","32.7083","119.4","216.02","567","60.03","33"
"03/15/12 13:31:09","32.7193","156.4","216.51","721","60.0","33"
"03/15/12 13:36:10","32.73","178.2","216.96","819","60.03","33"
"03/15/12 13:41:10","32.7428","150.9","218.07","694","60.03","33"